TimeCST,TemperatureF,Dew PointF,Humidity,Sea Level PressureIn,VisibilityMPH,Wind Direction,Wind SpeedMPH,Gust SpeedMPH,PrecipitationIn,Events,Conditions,WindDirDegrees,DateUTC
12:53 AM,3.9,-0.9,80,30.08,10.0,South,9.2,-,N/A,,Partly Cloudy,170,2012-12-22 06:53:00
1:53 AM,3.0,-0.9,84,30.08,10.0,South,5.8,-,N/A,,Partly Cloudy,180,2012-12-22 07:53:00
2:53 AM,3.0,-0.9,84,30.08,10.0,South,6.9,-,N/A,,Scattered Clouds,180,2012-12-22 08:53:00
3:53 AM,5.0,-0.0,80,30.08,10.0,SW,5.8,-,N/A,,Partly Cloudy,230,2012-12-22 09:53:00
4:53 AM,1.9,-0.9,88,30.08,10.0,WNW,5.8,-,N/A,,Partly Cloudy,300,2012-12-22 10:53:00
5:53 AM,10.0,5.0,80,30.09,10.0,North,16.1,-,0.00,Snow,Light Snow,350,2012-12-22 11:53:00
6:53 AM,10.0,3.9,76,30.13,10.0,NNW,12.7,-,0.00,,Mostly Cloudy,340,2012-12-22 12:53:00
7:17 AM,10.4,3.2,73,30.06,10.0,NNW,12.7,-,N/A,,Mostly Cloudy,340,2012-12-22 13:17:00
7:53 AM,10.0,6.1,84,30.14,6.0,NNW,17.3,-,0.00,Snow,Light Snow,340,2012-12-22 13:53:00
8:53 AM,10.9,6.1,81,30.15,3.0,North,19.6,28.8,0.00,Snow,Light Snow,350,2012-12-22 14:53:00
9:04 AM,10.4,6.8,85,30.10,2.0,North,19.6,25.3,0.00,Snow,Light Snow,350,2012-12-22 15:04:00
9:53 AM,10.9,6.1,81,30.18,2.5,North,16.1,-,0.00,Snow,Light Snow,350,2012-12-22 15:53:00
10:05 AM,10.4,6.8,85,30.12,2.5,North,21.9,27.6,0.00,Snow,Light Snow,360,2012-12-22 16:05:00
10:53 AM,12.0,7.0,80,30.19,2.0,North,19.6,25.3,0.00,Snow,Light Snow,350,2012-12-22 16:53:00
11:53 AM,12.9,8.1,81,30.18,1.8,North,16.1,-,0.00,Snow,Light Snow,350,2012-12-22 17:53:00
12:53 PM,14.0,8.1,77,30.18,1.2,North,20.7,-,0.00,Snow,Light Snow,350,2012-12-22 18:53:00
1:23 PM,14.0,6.8,73,30.11,4.0,North,19.6,-,0.00,Snow,Light Snow,360,2012-12-22 19:23:00
1:53 PM,14.0,7.0,74,30.19,4.0,NNW,18.4,-,0.00,Snow,Light Snow,340,2012-12-22 19:53:00
2:08 PM,12.2,6.8,79,30.12,1.8,NNW,21.9,-,0.00,Snow,Light Snow,340,2012-12-22 20:08:00
2:21 PM,12.2,6.8,79,30.12,2.0,NNW,20.7,-,0.00,Snow,Light Snow,340,2012-12-22 20:21:00
2:53 PM,12.0,5.0,73,30.20,4.0,NNW,19.6,-,0.00,Snow,Blowing Snow,340,2012-12-22 20:53:00
3:30 PM,10.4,5.0,79,30.15,3.0,North,21.9,-,0.00,Snow,Light Snow,350,2012-12-22 21:30:00
3:53 PM,10.9,3.0,70,30.23,10.0,North,19.6,-,0.00,,Scattered Clouds,350,2012-12-22 21:53:00
4:53 PM,9.0,3.9,80,30.25,2.0,NNW,12.7,-,N/A,,Mostly Cloudy,340,2012-12-22 22:53:00
5:30 PM,8.6,3.2,79,30.18,6.0,North,12.7,-,0.00,,Haze,350,2012-12-22 23:30:00
5:53 PM,9.0,5.0,84,30.25,6.0,NNW,11.5,-,0.00,,Overcast,340,2012-12-22 23:53:00
6:11 PM,8.6,5.0,85,30.19,3.0,North,13.8,-,0.00,Snow,Light Snow,350,2012-12-23 00:11:00
6:53 PM,10.0,5.0,80,30.26,3.0,North,18.4,-,0.00,Snow,Light Snow,360,2012-12-23 00:53:00
7:27 PM,6.8,3.2,85,30.20,10.0,North,12.7,-,0.00,,Scattered Clouds,350,2012-12-23 01:27:00
7:53 PM,5.0,1.0,84,30.27,10.0,North,8.1,-,0.00,,Scattered Clouds,360,2012-12-23 01:53:00
8:14 PM,5.0,1.4,85,30.20,6.0,North,10.4,-,N/A,,Overcast,350,2012-12-23 02:14:00
8:30 PM,6.8,1.4,79,30.20,4.0,North,9.2,-,0.00,Snow,Light Snow,350,2012-12-23 02:30:00
8:53 PM,7.0,1.9,80,30.27,5.0,North,11.5,-,0.00,Snow,Light Snow,360,2012-12-23 02:53:00
9:12 PM,6.8,1.4,79,30.20,5.0,North,13.8,-,0.00,,Haze,360,2012-12-23 03:12:00
9:53 PM,6.1,1.9,83,30.26,5.0,North,12.7,-,0.00,,Mostly Cloudy,360,2012-12-23 03:53:00
10:24 PM,5.0,1.4,85,30.21,3.0,NNW,13.8,-,N/A,,Overcast,340,2012-12-23 04:24:00
10:53 PM,3.0,-0.9,84,30.29,9.0,North,12.7,-,N/A,,Mostly Cloudy,350,2012-12-23 04:53:00
11:53 PM,1.9,-2.9,80,30.30,8.0,NNW,10.4,-,N/A,,Scattered Clouds,340,2012-12-23 05:53:00